This demonstration page uses our WeatherBlox Daily Observations layout. Learn more.

Left ArrowRight Arrow

39.51506, -84.39828

Hourly Observations for November 4, 2021

Temp ( °F °C ) Dew Point ( °F °C ) Humidity (%) Winds ( mph kmh ) Pressure ( in mb ) Visibility ( mi km ) Precip ( " mm )
12:15 am 00:15 Partly Cloudy 29 -1.8 28 -2.4 96 96 NNW 3 6 30.40 1029 10 16 0.00 0.00
12:35 am 00:35 Partly Cloudy 29 -1.5 28 -2.5 93 93 Calm 30.40 1029 10 16 0.00 0.00
12:55 am 00:55 Clear 29 -1.6 28 -2 97 97 S 3 6 30.40 1029 10 16 0.00 0.00
1:15 am 01:15 Clear 29 -1.9 28 -2.5 96 96 NNW 5 7 30.39 1029 10 16 0.00 0.00
1:35 am 01:35 Clear 29 -1.9 28 -2.3 97 97 NNE 3 6 30.39 1029 10 16 0.00 0.00
1:55 am 01:55 Clear 29 -1.9 28 -2.4 96 96 Calm 30.38 1029 10 16 0.00 0.00
2:15 am 02:15 Clear 28 -2.2 27 -2.7 96 96 N 3 6 30.38 1029 10 16 0.00 0.00
2:35 am 02:35 Clear 28 -2.1 27 -2.7 96 96 N 3 6 30.38 1029 10 16 0.00 0.00
2:55 am 02:55 Clear 28 -2.2 27 -2.7 96 96 N 5 7 30.38 1029 10 16 0.00 0.00
3:15 am 03:15 Clear 28 -2 27 -2.6 96 96 NNE 3 6 30.38 1029 10 16 0.00 0.00
3:35 am 03:35 Clear 29 -1.9 27 -2.6 95 95 Calm 30.39 1029 10 16 0.00 0.00
3:55 am 03:55 Clear 28 -2.4 27 -3 96 96 NNE 3 6 30.39 1029 10 16 0.00 0.00
4:15 am 04:15 Clear 28 -2.5 27 -3 96 96 N 3 6 30.38 1029 10 16 0.00 0.00
4:35 am 04:35 Clear 28 -2.3 27 -2.9 96 96 NNE 5 7 30.38 1029 10 16 0.00 0.00
4:55 am 04:55 Clear 29 -1.9 27 -2.8 94 94 NNE 3 6 30.37 1028 10 16 0.00 0.00
5:15 am 05:15 Clear 29 -1.7 27 -2.6 94 94 N 5 7 30.37 1028 10 16 0.00 0.00
5:35 am 05:35 Clear 29 -1.5 28 -2.3 94 94 N 3 6 30.37 1028 10 16 0.00 0.00
5:55 am 05:55 Clear 28 -2.2 27 -2.7 96 96 NNE 3 6 30.37 1028 10 16 0.00 0.00
6:15 am 06:15 Clear 29 -1.7 28 -2.3 96 96 NE 3 6 30.37 1028 10 16 0.00 0.00
6:35 am 06:35 Clear 28 -2.1 27 -2.6 96 96 Calm 30.37 1028 10 16 0.00 0.00
6:55 am 06:55 Clear 29 -1.9 28 -2.4 96 96 Calm 30.36 1028 10 16 0.00 0.00
7:15 am 07:15 Clear 29 -1.8 28 -2.3 96 96 Calm 30.36 1028 10 16 0.00 0.00
7:35 am 07:35 Clear 29 -1.7 28 -2.2 96 96 N 3 6 30.36 1028 10 16 0.00 0.00
7:55 am 07:55 Clear 29 -1.5 28 -2 96 96 N 3 6 30.37 1028 10 16 0.00 0.00
8:15 am 08:15 Sunny 29 -1.6 28 -2.1 96 96 N 3 6 30.37 1028 10 16 0.00 0.00
8:35 am 08:35 Sunny 29 -1.8 28 -2.2 97 97 N 3 6 30.37 1028 10 16 0.00 0.00
8:55 am 08:55 Sunny 29 -1.6 28 -2.1 96 96 Calm 30.38 1029 10 16 0.00 0.00
9:35 am 09:35 Sunny 33 0.7 30 -1 89 89 NE 3 6 30.38 1029 10 16 0.00 0.00
9:55 am 09:55 Sunny 35 1.9 30 -1.1 81 81 NNE 3 6 30.38 1029 10 16 0.00 0.00
10:15 am 10:15 Sunny 38 3.2 31 -0.7 76 76 NNE 3 6 30.39 1029 10 16 0.00 0.00
10:35 am 10:35 Sunny 40 4.3 31 -0.7 70 70 NE 3 6 30.38 1029 10 16 0.00 0.00
10:55 am 10:55 Sunny 42 5.6 30 -1.3 62 62 E 5 7 30.37 1028 10 16 0.00 0.00
11:15 am 11:15 Sunny 43 6.2 28 -2.2 55 55 Calm 30.38 1029 10 16 0.00 0.00
11:35 am 11:35 Partly Cloudy 45 7.4 29 -1.8 52 52 SE 3 6 30.38 1029 10 16 0.00 0.00
11:55 am 11:55 Partly Cloudy 46 7.6 27 -3 47 47 SSW 5 7 30.37 1028 10 16 0.00 0.00
12:15 pm 12:15 Sunny 47 8.3 24 -4.4 41 41 WSW 5 7 30.36 1028 10 16 0.00 0.00
12:35 pm 12:35 Partly Cloudy 48 8.9 24 -4.5 39 39 NNW 3 6 30.36 1028 10 16 0.00 0.00
12:55 pm 12:55 Partly Cloudy 48 8.8 22 -5.3 37 37 WSW 3 6 30.35 1028 10 16 0.00 0.00
1:15 pm 13:15 Partly Cloudy 49 9.3 22 -5.4 35 35 S 5 7 30.34 1027 10 16 0.00 0.00
1:35 pm 13:35 Cloudy 48 8.9 24 -4.5 39 39 NW 7 11 30.34 1027 10 16 0.00 0.00
1:55 pm 13:55 Partly Cloudy 49 9.6 24 -4.5 37 37 NNW 3 6 30.33 1027 10 16 0.00 0.00
2:15 pm 14:15 Partly Cloudy 49 9.7 22 -5.3 35 35 S 6 9 30.33 1027 10 16 0.00 0.00
2:35 pm 14:35 Mostly Cloudy 48 8.8 23 -4.8 38 38 WNW 7 11 30.32 1027 10 16 0.00 0.00
2:55 pm 14:55 Partly Cloudy 48 8.8 25 -4.1 40 40 WNW 6 9 30.32 1027 10 16 0.00 0.00
3:15 pm 15:15 Mostly Cloudy 48 9.1 23 -5 37 37 WNW 6 9 30.31 1026 10 16 0.00 0.00
3:35 pm 15:35 Mostly Cloudy 50 9.8 23 -4.8 36 36 WNW 6 9 30.31 1026 10 16 0.00 0.00
3:55 pm 15:55 Partly Cloudy 50 9.9 22 -5.4 34 34 NNE 6 9 30.31 1026 10 16 0.00 0.00
4:15 pm 16:15 Partly Cloudy 49 9.6 22 -5.4 35 35 N 8 13 30.31 1026 10 16 0.00 0.00
4:35 pm 16:35 Sunny 49 9.6 22 -5.6 34 34 N 5 7 30.30 1026 10 16 0.00 0.00
4:55 pm 16:55 Sunny 49 9.6 22 -5.8 34 34 N 3 6 30.30 1026 10 16 0.00 0.00
5:15 pm 17:15 Partly Cloudy 49 9.4 22 -5.7 34 34 W 7 11 30.30 1026 10 16 0.00 0.00
5:35 pm 17:35 Partly Cloudy 48 9 22 -5.5 36 36 N 6 9 30.30 1026 10 16 0.00 0.00
5:55 pm 17:55 Sunny 47 8.5 23 -5.1 38 38 N 3 6 30.30 1026 10 16 0.00 0.00
6:15 pm 18:15 Sunny 46 7.8 22 -5.3 39 39 N 5 7 30.31 1027 10 16 0.00 0.00
6:35 pm 18:35 Clear 45 7.3 25 -4.1 45 45 N 3 6 30.32 1027 10 16 0.00 0.00
6:55 pm 18:55 Clear 42 5.3 29 -1.6 61 61 N 3 6 30.32 1027 10 16 0.00 0.00
7:15 pm 19:15 Clear 39 4.1 29 -1.5 67 67 N 5 7 30.33 1027 10 16 0.00 0.00
7:35 pm 19:35 Clear 37 3 27 -2.7 67 67 N 5 7 30.34 1027 10 16 0.00 0.00
7:55 pm 19:55 Clear 36 2 26 -3.1 69 69 N 5 7 30.35 1028 10 16 0.00 0.00
8:15 pm 20:15 Clear 35 1.9 28 -2.5 73 73 NNE 5 7 30.35 1028 10 16 0.00 0.00
8:35 pm 20:35 Clear 36 2.1 27 -2.9 70 70 NNE 5 7 30.35 1028 10 16 0.00 0.00
8:55 pm 20:55 Clear 36 2.3 27 -3 68 68 NNE 6 9 30.35 1028 10 16 0.00 0.00
9:15 pm 21:15 Clear 36 2.2 28 -2.4 72 72 NNE 5 7 30.35 1028 10 16 0.00 0.00
9:35 pm 21:35 Clear 35 1.6 28 -2 77 77 N 3 6 30.35 1028 10 16 0.00 0.00
9:55 pm 21:55 Clear 32 -0.1 28 -2.2 86 86 N 3 6 30.37 1028 10 16 0.00 0.00
10:15 pm 22:15 Clear 31 -0.6 28 -2.4 88 88 Calm 30.37 1028 10 16 0.00 0.00
10:35 pm 22:35 Clear 31 -0.5 28 -2.1 89 89 Calm 30.37 1028 10 16 0.00 0.00
10:55 pm 22:55 Clear 30 -1.1 27 -2.9 88 88 N 3 6 30.38 1029 10 16 0.00 0.00
11:15 pm 23:15 Clear 29 -1.4 27 -2.7 91 91 NNE 3 6 30.38 1029 10 16 0.00 0.00
11:35 pm 23:35 Clear 29 -1.6 27 -2.7 92 92 N 3 6 30.38 1029 10 16 0.00 0.00
11:55 pm 23:55 Clear 29 -1.5 27 -2.6 92 92 N 3 6 30.38 1029 10 16 0.00 0.00

Powered by AerisWeather